TimeCDT,TemperatureF,Dew PointF,Humidity,Sea Level PressureIn,VisibilityMPH,Wind Direction,Wind SpeedMPH,Gust SpeedMPH,PrecipitationIn,Events,Conditions,WindDirDegrees,DateUTC
12:15 AM,54.0,39.2,57,29.92,10.0,SSE,13.8,-,N/A,,Clear,150,2013-03-10 06:15:00
12:35 AM,53.8,39.2,58,29.92,10.0,SSE,13.8,-,N/A,,Clear,150,2013-03-10 06:35:00
12:55 AM,53.6,39.2,58,29.92,10.0,SSE,12.7,-,N/A,,Clear,150,2013-03-10 06:55:00
1:15 AM,54.5,39.2,56,29.91,10.0,SSE,16.1,-,N/A,,Clear,160,2013-03-10 07:15:00
1:35 AM,55.4,38.8,54,29.91,10.0,SSE,16.1,-,N/A,,Scattered Clouds,160,2013-03-10 07:35:00
1:55 AM,55.4,39.2,54,29.90,10.0,SSE,19.6,-,N/A,,Mostly Cloudy,160,2013-03-10 07:55:00
3:15 AM,54.5,40.1,58,29.89,10.0,SSE,16.1,-,N/A,,Mostly Cloudy,150,2013-03-10 08:15:00
3:35 AM,54.5,40.1,58,29.89,10.0,SSE,15.0,-,N/A,,Overcast,150,2013-03-10 08:35:00
3:55 AM,53.6,40.3,61,29.88,10.0,SSE,16.1,-,N/A,,Mostly Cloudy,150,2013-03-10 08:55:00
4:15 AM,53.6,41.0,62,29.88,10.0,SSE,15.0,-,N/A,,Mostly Cloudy,150,2013-03-10 09:15:00
4:35 AM,53.2,41.0,63,29.88,10.0,SSE,12.7,-,N/A,,Mostly Cloudy,160,2013-03-10 09:35:00
4:55 AM,54.0,41.0,62,29.88,10.0,SSE,13.8,-,N/A,Rain,Light Rain,160,2013-03-10 09:55:00
5:15 AM,55.9,40.6,56,29.89,10.0,SSE,15.0,-,N/A,,Scattered Clouds,160,2013-03-10 10:15:00
5:35 AM,55.4,41.2,59,29.88,10.0,SSE,13.8,-,N/A,,Clear,150,2013-03-10 10:35:00
5:55 AM,55.2,41.4,60,29.87,10.0,SSE,15.0,-,N/A,,Clear,160,2013-03-10 10:55:00
6:15 AM,55.4,41.4,59,29.87,10.0,SSE,13.8,-,N/A,,Clear,160,2013-03-10 11:15:00
6:35 AM,56.1,41.2,57,29.88,10.0,SSE,12.7,-,N/A,,Clear,160,2013-03-10 11:35:00
7:15 AM,55.4,41.9,60,29.88,10.0,SSE,11.5,-,N/A,,Clear,160,2013-03-10 12:15:00
7:35 AM,55.4,42.8,63,29.88,10.0,SSE,12.7,-,N/A,,Clear,150,2013-03-10 12:35:00
7:55 AM,55.4,43.3,64,29.88,10.0,SSE,12.7,-,N/A,,Clear,150,2013-03-10 12:55:00
8:15 AM,54.5,43.7,67,29.88,10.0,SSE,12.7,-,N/A,,Clear,150,2013-03-10 13:15:00
8:35 AM,54.9,44.1,67,29.89,10.0,SSE,10.4,-,N/A,,Scattered Clouds,150,2013-03-10 13:35:00
8:55 AM,56.1,44.6,65,29.88,10.0,SSE,11.5,-,N/A,,Scattered Clouds,150,2013-03-10 13:55:00
9:15 AM,57.2,45.5,65,29.87,10.0,SSE,12.7,-,N/A,,Clear,150,2013-03-10 14:15:00
9:35 AM,59.0,45.3,60,29.86,10.0,SSE,16.1,-,N/A,,Clear,150,2013-03-10 14:35:00
9:55 AM,60.6,44.1,54,29.85,7.0,SSE,19.6,25.3,N/A,,Clear,150,2013-03-10 14:55:00
10:15 AM,60.3,43.9,55,29.85,10.0,SSE,16.1,25.3,N/A,,Clear,150,2013-03-10 15:15:00
10:35 AM,60.1,43.9,55,29.86,10.0,SSE,18.4,25.3,N/A,,Clear,150,2013-03-10 15:35:00
10:55 AM,60.8,43.3,53,29.85,10.0,SSE,24.2,27.6,N/A,,Clear,150,2013-03-10 15:55:00
11:15 AM,62.2,44.1,51,29.85,10.0,SSE,24.2,32.2,N/A,,Clear,150,2013-03-10 16:15:00
11:35 AM,63.9,44.4,49,29.84,10.0,SSE,27.6,34.5,N/A,,Clear,160,2013-03-10 16:35:00
11:55 AM,64.4,44.6,49,29.84,10.0,SSE,25.3,32.2,N/A,,Clear,160,2013-03-10 16:55:00
12:15 PM,65.3,45.3,48,29.82,10.0,SSE,25.3,29.9,N/A,,Scattered Clouds,150,2013-03-10 17:15:00
12:35 PM,64.6,45.5,50,29.80,10.0,SSE,25.3,28.8,N/A,,Scattered Clouds,150,2013-03-10 17:35:00
12:55 PM,64.8,45.0,49,29.80,10.0,SSE,23.0,-,N/A,,Clear,160,2013-03-10 17:55:00
1:15 PM,65.7,46.0,49,29.79,10.0,SSE,21.9,27.6,N/A,,Clear,150,2013-03-10 18:15:00
1:35 PM,66.4,46.0,48,29.79,10.0,SSE,19.6,32.2,N/A,,Clear,160,2013-03-10 18:35:00
1:55 PM,67.1,45.7,46,29.78,10.0,SSE,29.9,36.8,N/A,,Clear,160,2013-03-10 18:55:00
2:15 PM,67.3,46.4,47,29.76,10.0,SSE,26.5,31.1,N/A,,Clear,160,2013-03-10 19:15:00
2:35 PM,67.3,46.8,48,29.75,10.0,South,29.9,36.8,N/A,,Clear,170,2013-03-10 19:35:00
2:55 PM,66.2,46.6,49,29.73,10.0,SSE,24.2,31.1,N/A,,Scattered Clouds,160,2013-03-10 19:55:00
3:15 PM,66.2,47.1,50,29.72,10.0,SSE,23.0,38.0,N/A,,Mostly Cloudy,160,2013-03-10 20:15:00
3:35 PM,66.4,47.3,50,29.72,10.0,SSE,21.9,34.5,N/A,,Overcast,160,2013-03-10 20:35:00
3:55 PM,65.8,47.7,52,29.72,10.0,SSE,19.6,27.6,N/A,,Overcast,150,2013-03-10 20:55:00
4:15 PM,65.8,48.0,53,29.72,10.0,SSE,24.2,31.1,N/A,,Overcast,160,2013-03-10 21:15:00
4:35 PM,65.7,47.8,53,29.71,10.0,SSE,19.6,-,N/A,,Overcast,160,2013-03-10 21:35:00
4:55 PM,61.9,51.6,69,29.72,5.0,South,24.2,31.1,0.02,Rain,Rain,170,2013-03-10 21:55:00
5:15 PM,60.8,53.1,76,29.72,10.0,South,15.0,-,N/A,Rain,Light Rain,190,2013-03-10 22:15:00
5:35 PM,58.3,54.9,88,29.75,5.0,WSW,12.7,-,0.06,Rain,Heavy Rain,240,2013-03-10 22:35:00
5:55 PM,55.6,53.2,92,29.76,3.0,West,12.7,-,0.17,Rain,Heavy Rain,280,2013-03-10 22:55:00
6:15 PM,53.1,51.1,93,29.78,7.0,West,12.7,-,0.07,Rain,Rain,280,2013-03-10 23:15:00
6:35 PM,52.7,50.9,94,29.78,7.0,West,9.2,-,0.11,Rain,Heavy Rain,280,2013-03-10 23:35:00
6:55 PM,52.7,50.9,94,29.79,5.0,Calm,Calm,-,0.14,Rain,Rain,0,2013-03-10 23:55:00
7:15 PM,52.7,51.1,94,29.78,7.0,East,8.1,-,0.05,Rain,Rain,90,2013-03-11 00:15:00
7:35 PM,52.0,50.7,95,29.75,7.0,ESE,12.7,-,0.09,Rain,Heavy Rain,110,2013-03-11 00:35:00
7:55 PM,51.8,50.5,95,29.76,10.0,ENE,4.6,-,0.13,Rain,Light Rain,70,2013-03-11 00:55:00
8:15 PM,51.8,50.4,95,29.77,10.0,East,3.5,-,N/A,,Mostly Cloudy,100,2013-03-11 01:15:00
8:35 PM,51.8,50.5,95,29.77,10.0,SE,8.1,-,N/A,,Overcast,130,2013-03-11 01:35:00
8:55 PM,52.0,50.9,96,29.77,7.0,SSE,9.2,-,0.01,Rain,Rain,150,2013-03-11 01:55:00
9:15 PM,52.3,51.3,96,29.77,10.0,SSE,6.9,-,0.01,,Drizzle,160,2013-03-11 02:15:00
9:35 PM,52.3,51.1,95,29.78,7.0,SSE,6.9,-,0.01,,Drizzle,160,2013-03-11 02:35:00
9:55 PM,52.2,51.1,96,29.77,5.0,SSE,5.8,-,0.02,,Drizzle,160,2013-03-11 02:55:00
10:35 PM,52.7,51.4,95,29.76,10.0,SE,10.4,-,0.01,,Light Drizzle,140,2013-03-11 03:35:00
10:55 PM,53.2,52.2,96,29.75,7.0,SSE,8.1,-,0.01,,Overcast,160,2013-03-11 03:55:00
11:15 PM,53.6,52.7,97,29.74,7.0,SSE,11.5,-,N/A,,Overcast,160,2013-03-11 04:15:00
11:35 PM,53.8,52.7,96,29.76,10.0,South,8.1,-,N/A,,Overcast,170,2013-03-11 04:35:00
11:55 PM,53.4,52.3,96,29.76,10.0,South,9.2,-,N/A,,Overcast,180,2013-03-11 04:55:00
12:15 AM,53.1,52.0,96,29.75,10.0,South,6.9,-,N/A,,Overcast,180,2013-03-11 05:15:00
12:35 AM,54.3,53.1,95,29.76,10.0,SSW,13.8,17.3,N/A,,Overcast,200,2013-03-11 05:35:00
12:55 AM,54.1,52.7,95,29.75,10.0,South,8.1,-,N/A,,Overcast,190,2013-03-11 05:55:00